COSMOS 1455

Last updated on Sat Apr 13 2024 01:02:09 GMT+0100 (British Summer Time)

1 14032U 83037A 24103.59595376 .00010583 00000+0 31343-3 0 9993 2 14032 82.5060 134.1216 0011058 211.7802 148.2775 15.34666316239680
UTC large
Height (km)
Speed (km/s)
/
Latitude / Longitude
Inclination (degrees)
Orbital Period (minutes)
Azimuth
Elevation
Range (km)
Doppler Factor

Next 0 passes for location: London (51.5072 / 0.1276)

Sorry there are no passes over London.